Wind_Speed
29 27 27 23 19 18 18 18 20 21 23 23 22 20 17 16 16 15 15 14 13 13 12 12 13 12 12 13 14 15 16 17 17 18 19 19 20 21 22 23 24 25 26 27
31 28 26 23 21 19 17 19 21 23 25 24 24 21 19 19 19 18 17 17 16 16 16 15 14 15 15 16 17 17 18 19 20 20 20 21 22 23 25 26 27 27 28 29
31 27 27 24 22 21 21 22 22 23 25 26 24 23 21 20 20 20 19 19 19 19 19 18 18 19 19 19 20 20 21 22 23 23 23 24 25 26 27 28 29 30 31 31
30 28 27 25 24 23 22 23 24 25 26 26 24 22 22 21 21 21 21 21 21 21 21 21 21 22 23 23 24 24 25 25 26 27 27 28 28 29 30 31 31 32 33 33
30 30 28 25 25 24 22 23 25 25 25 26 24 24 22 20 21 22 23 23 24 24 24 24 25 25 25 26 27 27 28 28 29 30 31 31 31 31 32 33 34 34 35 35
26 27 27 26 25 24 24 24 24 25 26 26 24 24 21 21 21 23 24 25 25 25 26 27 27 27 28 28 29 30 31 31 32 34 33 34 34 34 35 35 36 36 37 38
27 27 26 26 24 22 24 25 24 23 24 23 23 23 23 22 22 23 23 25 26 27 27 28 29 29 30 31 31 32 34 35 36 36 36 36 36 36 36 36 38 38 38 38
27 29 28 27 25 23 23 23 22 22 22 22 23 24 24 23 24 24 25 25 26 28 28 29 31 31 32 33 34 34 36 37 37 38 39 39 39 38 38 38 40 41 39 38
27 28 27 26 25 23 23 23 22 21 22 23 23 24 24 25 25 26 27 27 28 29 30 30 31 33 34 34 34 35 36 38 38 38 39 39 39 40 40 40 40 40 39 40
25 26 25 25 25 26 24 22 21 21 22 22 23 24 24 24 25 26 27 27 28 28 29 30 31 32 33 34 34 34 36 36 35 36 38 37 37 38 40 40 40 41 42 43
22 22 21 21 21 21 21 21 21 22 23 23 23 23 24 24 25 25 26 27 28 29 29 30 31 32 33 33 33 35 35 36 36 36 37 37 37 38 39 40 41 41 42 44
16 17 15 15 17 18 20 20 21 22 22 23 23 23 24 24 25 26 27 27 28 29 30 31 31 32 33 33 33 34 35 35 36 36 37 37 37 38 40 41 41 42 43 45
16 16 16 18 18 19 21 21 22 22 23 23 24 24 25 25 26 27 28 28 29 29 30 31 31 32 32 33 35 36 37 37 38 39 39 39 39 40 41 41 42 43 44 45
18 18 18 19 19 20 21 22 22 23 24 24 25 25 26 27 27 28 29 30 30 31 31 31 31 32 33 34 35 36 37 38 39 40 40 41 41 42 43 43 44 44 46 47
16 17 18 19 20 20 21 22 22 23 24 25 26 27 27 27 28 29 29 30 30 31 31 32 33 34 35 36 36 37 37 38 39 39 40 42 43 44 44 45 46 47 48 49
16 18 18 19 20 20 22 23 23 24 24 25 27 27 28 28 29 30 31 31 32 32 32 33 34 36 37 37 37 38 39 40 41 42 43 44 45 45 46 47 48 49 51 52
17 18 18 19 20 21 22 23 24 25 26 27 28 29 29 30 31 32 33 33 34 35 36 36 37 38 38 38 38 39 40 41 42 43 44 45 46 47 48 49 50 51 52 53
18 19 19 20 20 22 23 23 24 26 27 28 29 31 32 33 33 34 35 36 36 37 38 38 38 39 39 40 40 41 42 43 44 45 46 47 48 49 50 51 51 52 52 52
19 20 20 21 22 23 24 25 26 27 28 29 30 31 32 33 34 35 36 36 37 38 39 39 39 40 41 41 42 44 44 45 46 47 48 49 49 49 50 50 50 50 49 50
20 21 22 23 24 26 27 28 29 30 31 31 32 33 34 35 36 36 37 38 39 39 40 41 41 42 43 43 44 44 45 46 46 47 47 47 47 48 47 47 47 47 47 47
22 23 24 25 26 27 28 29 30 31 32 33 34 35 36 37 37 38 39 40 41 41 41 42 42 42 43 43 44 44 45 45 45 45 45 45 45 45 44 44 44 44 44 43
23 25 26 27 28 29 30 31 32 33 34 35 36 37 38 39 39 40 40 41 41 41 41 42 42 42 42 42 42 42 42 42 42 42 42 42 41 41 40 40 40 39 38 37
25 26 27 29 30 31 32 33 34 35 35 36 38 38 39 39 39 40 41 41 41 41 41 41 41 41 41 40 40 39 39 39 39 39 39 38 37 36 36 36 35 34 33 31
26 28 29 30 31 33 34 35 36 36 37 38 38 39 39 39 40 41 41 40 40 40 40 40 39 39 39 38 38 37 37 37 37 36 35 34 33 32 32 31 30 28 27 26
28 30 31 32 33 34 36 37 37 37 37 38 39 39 39 39 40 39 39 38 38 37 38 38 37 37 37 36 35 35 35 34 33 31 30 30 29 29 29 28 26 24 23 22
29 30 32 33 34 35 36 37 37 37 38 38 38 38 38 38 38 37 37 36 36 36 36 35 35 34 33 32 31 30 30 29 28 28 28 27 27 26 25 24 21 19 18 18
30 32 33 34 35 36 36 37 37 37 37 37 37 36 36 36 35 34 34 34 34 33 33 32 32 31 30 29 28 27 27 27 27 26 25 25 23 22 20 18 16 15 14 14
Wind_Direction
233 240 249 258 257 247 245 252 255 258 260 265 270 272 276 281 284 283 280 278 278 276 273 271 268 266 266 264 262 260 260 256 258 260 260 261 263 266 267 269 270 272 274 276
233 237 246 258 263 260 258 260 259 258 261 260 264 269 278 280 278 280 278 275 274 274 276 275 273 272 270 269 268 268 268 267 267 269 268 267 268 269 271 272 273 273 274 276
233 235 239 246 251 253 254 254 253 256 261 264 265 269 275 276 274 273 276 274 274 275 275 277 276 276 275 273 273 273 273 272 272 272 272 273 273 274 275 275 276 277 276 277
233 236 239 238 245 249 253 251 250 254 258 262 266 265 269 270 269 269 271 273 272 273 273 274 275 274 273 274 274 277 277 276 275 275 275 275 276 275 276 276 277 277 276 277
230 235 241 241 243 247 248 248 252 256 259 265 268 270 270 270 269 269 269 270 271 271 270 271 273 273 274 274 274 276 278 277 276 277 277 277 277 277 278 279 278 279 279 279
232 234 237 237 243 244 247 252 255 259 260 263 267 268 272 271 271 271 269 269 270 270 271 272 272 273 274 273 274 276 278 279 280 279 279 278 277 278 280 279 277 278 278 279
234 236 238 242 244 246 246 255 257 258 260 263 266 270 274 273 270 271 271 272 271 271 272 274 275 275 275 276 275 277 279 279 280 279 278 277 276 277 278 277 277 279 278 278
236 237 238 242 245 246 250 254 255 258 262 267 270 272 274 275 274 274 274 274 274 274 273 274 275 276 276 277 277 277 278 279 280 279 278 278 278 278 278 278 281 281 281 281
230 234 239 242 247 246 253 257 260 262 264 268 271 273 275 277 278 277 276 276 276 276 276 276 277 277 278 276 276 278 279 280 280 279 279 279 278 278 280 281 282 282 282 283
231 233 242 244 246 251 256 256 261 266 266 268 272 275 278 279 279 280 280 279 279 278 277 277 277 278 280 280 281 281 281 281 281 281 283 284 283 284 284 283 284 284 284 285
242 243 247 245 247 252 256 260 265 268 270 272 274 278 280 282 282 282 282 281 281 281 281 281 280 280 279 280 280 281 281 281 282 283 284 284 284 285 285 284 284 285 286 286
240 242 244 250 254 255 259 265 268 271 273 275 277 280 282 283 283 283 283 284 284 283 282 282 282 282 281 281 282 282 284 285 286 285 286 287 288 288 288 287 286 286 287 288
252 254 258 260 258 258 262 265 269 272 275 277 280 282 283 284 285 284 284 285 285 284 283 282 282 283 283 283 284 284 284 284 285 285 286 287 288 288 288 287 287 287 288 288
257 260 261 263 265 263 266 270 272 275 277 279 281 282 283 285 285 285 285 285 285 285 284 283 283 285 286 286 286 287 287 287 287 287 287 288 288 289 290 290 290 291 291 291
261 263 264 266 268 270 272 274 276 278 280 281 282 283 283 285 285 286 287 287 288 288 287 287 289 289 290 290 290 290 290 290 291 291 291 291 291 291 292 292 292 292 291 292
265 267 269 270 273 274 277 279 280 281 282 283 284 284 285 287 287 288 289 290 291 291 291 291 292 292 291 290 290 291 291 291 291 291 292 292 292 292 292 292 292 292 292 293
269 270 273 275 276 278 279 280 282 284 284 284 285 285 286 287 289 290 290 291 291 292 293 293 293 292 291 291 291 292 292 292 292 292 292 292 293 293 293 293 293 293 294 294
272 275 278 279 280 281 282 283 284 285 286 286 287 287 287 288 290 291 292 292 293 294 294 293 292 292 291 291 292 292 292 293 294 293 293 294 294 294 294 294 294 295 296 296
273 276 278 280 280 282 284 285 285 286 288 289 289 289 290 291 292 294 295 295 294 294 294 295 294 294 294 294 294 295 295 295 295 294 294 294 294 295 295 295 295 295 296 297
275 277 279 280 282 284 285 286 286 287 288 289 290 291 291 293 294 295 295 295 296 296 295 295 295 295 296 296 296 296 296 295 295 295 295 294 294 295 295 295 296 296 297 298
277 278 280 281 283 285 286 287 287 288 289 290 291 293 294 295 296 296 297 297 297 297 298 297 297 297 297 297 296 296 296 296 296 296 296 296 296 296 296 296 296 297 298 299
278 280 282 283 285 286 287 288 289 290 292 294 295 295 296 297 298 298 298 298 299 299 299 299 298 298 298 298 298 298 298 298 298 298 298 298 297 297 297 297 298 299 300 301
280 281 283 286 287 289 290 291 292 293 294 295 296 297 298 298 299 299 299 299 299 299 299 299 299 299 299 299 299 299 298 298 299 299 299 299 299 299 299 299 300 301 301 301
281 283 284 286 288 290 291 294 295 295 295 296 297 297 298 299 299 299 300 300 300 300 300 300 300 300 300 299 298 298 298 298 299 300 300 300 301 302 303 302 302 302 301 302
282 283 285 287 289 291 293 295 296 296 296 297 297 298 299 299 300 301 301 301 301 301 301 301 301 301 300 300 299 299 299 300 301 302 301 301 303 304 305 305 304 303 301 302
283 284 286 288 289 292 294 295 296 297 297 298 300 300 300 300 300 300 301 301 301 301 301 301 301 301 301 301 301 301 302 303 303 303 304 304 305 306 306 305 305 304 304 304
284 286 287 289 291 293 295 296 296 297 298 299 300 300 300 300 300 299 299 300 301 301 302 302 302 302 302 302 302 303 304 306 306 306 306 306 306 307 308 309 310 310 311 312
Height
5819 5820 5821 5820 5822 5823 5826 5828 5829 5828 5827 5826 5825 5825 5826 5828 5829 5830 5831 5831 5831 5831 5831 5831 5832 5832 5834 5835 5835 5836 5836 5836 5838 5839 5839 5840 5841 5842 5842 5843 5843 5843 5843 5843
5812 5815 5816 5817 5818 5819 5821 5823 5824 5823 5822 5821 5820 5821 5823 5825 5826 5826 5827 5828 5828 5828 5828 5828 5828 5830 5831 5831 5832 5832 5832 5832 5833 5834 5835 5835 5835 5836 5836 5836 5836 5836 5836 5835
5805 5809 5811 5812 5814 5815 5816 5817 5818 5817 5817 5816 5816 5819 5820 5821 5821 5822 5823 5823 5824 5824 5824 5825 5826 5826 5826 5826 5826 5826 5827 5828 5828 5828 5828 5828 5829 5829 5829 5829 5828 5828 5827 5827
5799 5803 5803 5808 5808 5809 5810 5810 5811 5811 5810 5810 5810 5813 5814 5815 5816 5817 5818 5819 5819 5820 5820 5820 5821 5821 5821 5822 5821 5821 5821 5821 5821 5821 5821 5821 5821 5821 5820 5819 5819 5819 5818 5818
5792 5795 5797 5800 5801 5802 5803 5804 5805 5805 5805 5806 5806 5807 5808 5810 5811 5812 5813 5813 5813 5814 5814 5815 5815 5815 5815 5815 5816 5815 5815 5813 5813 5813 5813 5813 5812 5812 5811 5810 5810 5809 5808 5807
5785 5788 5790 5792 5794 5795 5799 5798 5798 5799 5800 5800 5801 5802 5804 5805 5805 5806 5807 5807 5807 5807 5808 5808 5808 5808 5808 5808 5808 5808 5807 5806 5805 5805 5804 5804 5803 5802 5801 5800 5799 5798 5797 5796
5779 5782 5784 5785 5787 5790 5793 5793 5793 5793 5793 5794 5796 5797 5798 5798 5799 5800 5800 5800 5801 5801 5801 5801 5801 5801 5800 5800 5799 5799 5799 5798 5797 5796 5794 5793 5792 5792 5791 5789 5789 5787 5786 5785
5774 5776 5780 5779 5781 5784 5785 5786 5786 5786 5788 5789 5791 5791 5792 5792 5793 5793 5793 5794 5794 5794 5794 5793 5793 5793 5792 5792 5791 5790 5790 5789 5788 5786 5785 5783 5782 5781 5780 5779 5779 5777 5776 5775
5767 5771 5772 5774 5775 5777 5779 5780 5781 5782 5784 5785 5785 5785 5786 5786 5786 5786 5786 5786 5786 5786 5786 5786 5785 5784 5783 5782 5782 5781 5780 5779 5777 5776 5775 5773 5772 5770 5769 5768 5767 5766 5765 5763
5759 5761 5764 5766 5769 5772 5774 5775 5777 5777 5778 5779 5779 5779 5779 5779 5779 5779 5779 5778 5778 5778 5778 5777 5777 5776 5775 5774 5773 5772 5770 5768 5766 5765 5764 5762 5761 5759 5758 5756 5755 5754 5752 5751
5754 5756 5758 5760 5763 5766 5768 5769 5770 5772 5772 5773 5773 5773 5773 5773 5772 5772 5772 5771 5771 5770 5769 5769 5768 5767 5766 5765 5764 5762 5761 5758 5757 5756 5755 5753 5751 5749 5747 5746 5744 5742 5740 5738
5750 5752 5754 5756 5758 5760 5762 5764 5765 5766 5766 5766 5766 5766 5766 5766 5765 5765 5764 5764 5763 5762 5761 5760 5759 5757 5756 5755 5753 5752 5751 5748 5746 5745 5743 5742 5740 5738 5736 5734 5732 5729 5727 5725
5748 5749 5750 5752 5754 5756 5757 5759 5759 5760 5760 5760 5760 5760 5759 5759 5758 5757 5757 5755 5754 5753 5752 5751 5750 5748 5747 5745 5744 5742 5740 5738 5736 5734 5732 5730 5728 5726 5724 5722 5720 5717 5714 5710
5744 5746 5747 5749 5750 5751 5752 5753 5753 5753 5753 5753 5753 5753 5752 5751 5750 5749 5748 5747 5746 5745 5743 5741 5740 5739 5737 5735 5733 5731 5729 5727 5725 5722 5720 5718 5715 5713 5710 5708 5705 5702 5699 5696
5741 5742 5743 5744 5745 5745 5746 5747 5747 5747 5747 5746 5746 5745 5744 5743 5742 5741 5740 5738 5736 5735 5734 5732 5730 5728 5726 5724 5722 5720 5717 5715 5713 5710 5708 5705 5702 5699 5696 5693 5690 5687 5684 5680
5737 5737 5738 5739 5739 5740 5740 5740 5740 5740 5739 5739 5738 5737 5736 5735 5734 5732 5731 5729 5727 5726 5724 5722 5720 5718 5716 5714 5711 5709 5706 5704 5701 5698 5695 5692 5689 5686 5682 5679 5675 5672 5668 5664
5732 5733 5733 5733 5734 5734 5734 5734 5734 5733 5732 5731 5731 5729 5728 5727 5725 5723 5721 5720 5718 5716 5714 5712 5709 5707 5705 5702 5699 5697 5694 5691 5688 5685 5682 5679 5676 5672 5668 5664 5660 5656 5652 5647
5728 5728 5728 5728 5728 5728 5728 5727 5727 5726 5725 5723 5722 5721 5720 5718 5716 5714 5712 5709 5707 5705 5703 5700 5698 5695 5693 5690 5687 5684 5681 5678 5675 5672 5668 5665 5661 5657 5653 5649 5645 5640 5636 5631
5723 5723 5723 5723 5722 5722 5721 5720 5719 5718 5717 5716 5714 5713 5711 5709 5706 5704 5702 5699 5697 5694 5692 5689 5686 5683 5680 5677 5674 5671 5668 5664 5661 5657 5654 5650 5646 5642 5638 5633 5629 5624 5620 5615
5717 5717 5717 5716 5716 5715 5714 5713 5712 5710 5709 5707 5705 5704 5701 5699 5696 5694 5691 5689 5686 5683 5680 5677 5674 5671 5668 5664 5661 5657 5654 5650 5646 5643 5639 5635 5631 5627 5623 5619 5614 5610 5606 5601
5711 5710 5710 5710 5709 5708 5707 5705 5704 5702 5700 5698 5696 5693 5691 5688 5686 5683 5680 5677 5674 5671 5667 5664 5661 5658 5654 5651 5647 5644 5640 5636 5632 5628 5624 5621 5617 5613 5609 5605 5601 5596 5592 5588
5704 5704 5703 5702 5701 5699 5698 5696 5694 5692 5690 5688 5686 5683 5681 5678 5674 5671 5668 5666 5663 5659 5655 5652 5648 5645 5641 5638 5634 5630 5627 5623 5619 5615 5611 5607 5604 5600 5596 5592 5588 5584 5580 5576
5697 5696 5695 5694 5692 5691 5689 5687 5685 5683 5681 5678 5675 5673 5670 5667 5663 5660 5657 5654 5650 5647 5643 5639 5636 5632 5628 5625 5622 5618 5614 5611 5607 5603 5599 5595 5592 5588 5584 5581 5577 5573 5570 5566
5689 5688 5687 5685 5684 5682 5680 5678 5676 5673 5670 5668 5665 5662 5659 5655 5652 5649 5645 5642 5638 5634 5631 5628 5624 5620 5616 5613 5610 5606 5603 5600 5596 5592 5588 5585 5581 5578 5574 5571 5567 5564 5561 5558
5681 5680 5679 5677 5675 5673 5670 5668 5665 5662 5660 5657 5654 5651 5647 5644 5641 5637 5634 5630 5627 5623 5620 5616 5613 5609 5605 5602 5599 5595 5592 5589 5586 5582 5579 5576 5572 5569 5566 5562 5559 5556 5554 5551
5673 5671 5670 5668 5665 5663 5661 5658 5655 5652 5649 5646 5643 5640 5636 5633 5630 5626 5623 5619 5616 5613 5609 5606 5602 5599 5596 5593 5589 5586 5583 5580 5577 5574 5571 5568 5565 5561 5558 5555 5553 5550 5548 5546
5664 5662 5661 5659 5656 5654 5651 5648 5645 5642 5639 5636 5633 5629 5626 5623 5620 5617 5613 5610 5607 5603 5600 5597 5593 5590 5587 5584 5581 5579 5576 5573 5570 5567 5564 5561 5558 5555 5552 5550 5548 5546 5544 5542